Time,TemperatureF,DewpointF,PressureIn,WindDirection,WindDirectionDegrees,WindSpeedMPH,WindSpeedGustMPH,Humidity,HourlyPrecipIn,Conditions,Clouds,dailyrainin,SoftwareType,DateUTC
2013-02-16 00:02:00,34.0,19.5,30.30,NNW,338,0.0,0.0,55,0.00,,,0.00,Wunderground v.1.15,2013-02-16 06:02:00,
2013-02-16 00:08:00,33.8,20.2,30.31,NNW,336,0.0,1.0,57,0.00,,,0.00,Wunderground v.1.15,2013-02-16 06:08:00,
2013-02-16 00:14:00,33.8,20.6,30.31,NW,319,1.0,1.0,58,0.00,,,0.00,Wunderground v.1.15,2013-02-16 06:14:00,
2013-02-16 00:20:00,33.9,20.7,30.31,NW,309,2.0,4.0,58,0.00,,,0.00,Wunderground v.1.15,2013-02-16 06:20:00,
2013-02-16 00:26:00,33.9,20.7,30.31,NW,312,2.0,5.0,58,0.00,,,0.00,Wunderground v.1.15,2013-02-16 06:26:00,
2013-02-16 00:32:00,33.9,21.1,30.31,WNW,292,2.0,4.0,59,0.00,,,0.00,Wunderground v.1.15,2013-02-16 06:32:00,
2013-02-16 00:38:00,33.9,21.9,30.31,WNW,300,3.0,4.0,61,0.00,,,0.00,Wunderground v.1.15,2013-02-16 06:38:00,
2013-02-16 00:44:00,34.1,22.4,30.31,WNW,287,3.0,7.0,62,0.00,,,0.00,Wunderground v.1.15,2013-02-16 06:44:00,
2013-02-16 00:50:00,34.2,22.9,30.31,NW,314,3.0,5.0,63,0.00,,,0.00,Wunderground v.1.15,2013-02-16 06:50:00,
2013-02-16 00:56:00,34.4,23.8,30.31,NW,325,3.0,5.0,65,0.00,,,0.00,Wunderground v.1.15,2013-02-16 06:56:00,
2013-02-16 01:02:00,34.4,24.2,30.31,WNW,290,2.0,4.0,66,0.00,,,0.00,Wunderground v.1.15,2013-02-16 07:02:00,
2013-02-16 01:08:00,34.4,24.9,30.31,WNW,300,3.0,4.0,68,0.00,,,0.00,Wunderground v.1.15,2013-02-16 07:08:00,
2013-02-16 01:14:00,34.7,25.6,30.31,WNW,300,4.0,5.0,69,0.00,,,0.00,Wunderground v.1.15,2013-02-16 07:14:00,
2013-02-16 01:20:00,35.1,26.3,30.32,WNW,298,5.0,5.0,70,0.00,,,0.00,Wunderground v.1.15,2013-02-16 07:20:00,
2013-02-16 01:26:00,35.3,26.5,30.32,NW,320,5.0,8.0,70,0.00,,,0.00,Wunderground v.1.15,2013-02-16 07:26:00,
2013-02-16 01:32:00,35.4,25.9,30.32,North,355,6.0,8.0,68,0.00,,,0.00,Wunderground v.1.15,2013-02-16 07:32:00,
2013-02-16 01:38:00,35.1,24.9,30.32,NNE,15,7.0,9.0,66,0.00,,,0.00,Wunderground v.1.15,2013-02-16 07:38:00,
2013-02-16 01:44:00,34.7,24.1,30.33,NNE,26,8.0,15.0,65,0.00,,,0.00,Wunderground v.1.15,2013-02-16 07:44:00,
2013-02-16 01:50:00,33.9,24.1,30.33,NE,39,10.0,13.0,67,0.00,,,0.00,Wunderground v.1.15,2013-02-16 07:50:00,
2013-02-16 01:56:00,33.3,24.2,30.32,NNE,31,10.0,13.0,69,0.00,,,0.00,Wunderground v.1.15,2013-02-16 07:56:00,
2013-02-16 02:02:00,33.0,24.3,30.32,NNE,24,6.0,9.0,70,0.00,,,0.00,Wunderground v.1.15,2013-02-16 08:02:00,
2013-02-16 02:08:00,32.8,24.1,30.32,NNE,17,5.0,9.0,70,0.00,,,0.00,Wunderground v.1.15,2013-02-16 08:08:00,
2013-02-16 02:14:00,32.6,24.2,30.32,NNE,15,4.0,6.0,71,0.00,,,0.00,Wunderground v.1.15,2013-02-16 08:14:00,
2013-02-16 02:20:00,32.5,24.1,30.32,NNE,22,2.0,2.0,71,0.00,,,0.00,Wunderground v.1.15,2013-02-16 08:20:00,
2013-02-16 02:26:00,32.4,24.4,30.33,NNE,22,2.0,4.0,72,0.00,,,0.00,Wunderground v.1.15,2013-02-16 08:26:00,
2013-02-16 02:32:00,32.2,24.2,30.33,NNE,23,1.0,2.0,72,0.00,,,0.00,Wunderground v.1.15,2013-02-16 08:32:00,
2013-02-16 02:38:00,32.0,24.3,30.32,NNE,23,1.0,4.0,73,0.00,,,0.00,Wunderground v.1.15,2013-02-16 08:38:00,
2013-02-16 02:44:00,31.9,24.2,30.33,NNE,22,1.0,1.0,73,0.00,,,0.00,Wunderground v.1.15,2013-02-16 08:44:00,
2013-02-16 02:50:00,31.7,24.0,30.33,NNE,23,0.0,0.0,73,0.00,,,0.00,Wunderground v.1.15,2013-02-16 08:50:00,
2013-02-16 02:56:00,31.5,23.8,30.33,NNE,23,0.0,0.0,73,0.00,,,0.00,Wunderground v.1.15,2013-02-16 08:56:00,
2013-02-16 03:02:00,31.3,23.6,30.33,NNE,23,0.0,3.0,73,0.00,,,0.00,Wunderground v.1.15,2013-02-16 09:02:00,
2013-02-16 03:08:00,31.2,23.9,30.33,NNE,23,1.0,3.0,74,0.00,,,0.00,Wunderground v.1.15,2013-02-16 09:08:00,
2013-02-16 03:14:00,31.1,23.8,30.33,NW,323,2.0,5.0,74,0.00,,,0.00,Wunderground v.1.15,2013-02-16 09:14:00,
2013-02-16 03:20:00,31.1,23.5,30.33,NNW,345,3.0,4.0,73,0.00,,,0.00,Wunderground v.1.15,2013-02-16 09:20:00,
2013-02-16 03:26:00,31.1,23.1,30.33,North,9,3.0,4.0,72,0.00,,,0.00,Wunderground v.1.15,2013-02-16 09:26:00,
2013-02-16 03:32:00,31.1,21.8,30.33,NNW,338,4.0,8.0,68,0.00,,,0.00,Wunderground v.1.15,2013-02-16 09:32:00,
2013-02-16 03:38:00,31.1,20.7,30.33,NNW,341,5.0,9.0,65,0.00,,,0.00,Wunderground v.1.15,2013-02-16 09:38:00,
2013-02-16 03:44:00,31.0,20.6,30.33,NW,316,4.0,12.0,65,0.00,,,0.00,Wunderground v.1.15,2013-02-16 09:44:00,
2013-02-16 03:50:00,30.9,19.8,30.33,NNW,339,5.0,5.0,63,0.00,,,0.00,Wunderground v.1.15,2013-02-16 09:50:00,
2013-02-16 03:56:00,30.7,19.6,30.33,NNW,343,4.0,6.0,63,0.00,,,0.00,Wunderground v.1.15,2013-02-16 09:56:00,
2013-02-16 04:02:00,30.5,19.4,30.33,NNW,342,4.0,4.0,63,0.00,,,0.00,Wunderground v.1.15,2013-02-16 10:02:00,
2013-02-16 04:08:00,30.3,18.8,30.33,North,350,4.0,7.0,62,0.00,,,0.00,Wunderground v.1.15,2013-02-16 10:08:00,
2013-02-16 04:14:00,30.2,18.7,30.33,North,355,4.0,4.0,62,0.00,,,0.00,Wunderground v.1.15,2013-02-16 10:14:00,
2013-02-16 04:20:00,30.1,17.9,30.33,NNW,337,4.0,7.0,60,0.00,,,0.00,Wunderground v.1.15,2013-02-16 10:20:00,
2013-02-16 04:26:00,30.0,17.4,30.33,NNE,18,5.0,7.0,59,0.00,,,0.00,Wunderground v.1.15,2013-02-16 10:26:00,
2013-02-16 04:32:00,29.8,16.8,30.33,NNW,342,4.0,4.0,58,0.00,,,0.00,Wunderground v.1.15,2013-02-16 10:32:00,
2013-02-16 04:38:00,29.6,16.2,30.33,NNW,340,3.0,4.0,57,0.00,,,0.00,Wunderground v.1.15,2013-02-16 10:38:00,
2013-02-16 04:44:00,29.5,15.7,30.32,North,349,3.0,6.0,56,0.00,,,0.00,Wunderground v.1.15,2013-02-16 10:44:00,
2013-02-16 04:50:00,29.3,15.5,30.33,NNE,19,3.0,3.0,56,0.00,,,0.00,Wunderground v.1.15,2013-02-16 10:50:00,
2013-02-16 04:56:00,29.2,15.0,30.32,North,11,3.0,4.0,55,0.00,,,0.00,Wunderground v.1.15,2013-02-16 10:56:00,
2013-02-16 05:02:00,29.0,14.8,30.33,NNW,337,3.0,3.0,55,0.00,,,0.00,Wunderground v.1.15,2013-02-16 11:02:00,
2013-02-16 05:08:00,28.8,14.6,30.33,NNE,20,3.0,4.0,55,0.00,,,0.00,Wunderground v.1.15,2013-02-16 11:08:00,
2013-02-16 05:14:00,28.7,14.6,30.33,North,360,3.0,4.0,55,0.00,,,0.00,Wunderground v.1.15,2013-02-16 11:14:00,
2013-02-16 05:20:00,28.6,14.5,30.33,North,355,2.0,3.0,55,0.00,,,0.00,Wunderground v.1.15,2013-02-16 11:20:00,
2013-02-16 05:26:00,28.4,14.3,30.33,North,350,2.0,3.0,55,0.00,,,0.00,Wunderground v.1.15,2013-02-16 11:26:00,
2013-02-16 05:32:00,28.2,14.1,30.33,North,360,2.0,4.0,55,0.00,,,0.00,Wunderground v.1.15,2013-02-16 11:32:00,
2013-02-16 05:38:00,28.1,14.4,30.33,North,360,3.0,4.0,56,0.00,,,0.00,Wunderground v.1.15,2013-02-16 11:38:00,
2013-02-16 05:44:00,28.0,14.3,30.33,NNW,334,3.0,3.0,56,0.00,,,0.00,Wunderground v.1.15,2013-02-16 11:44:00,
2013-02-16 05:50:00,27.9,14.6,30.33,North,360,3.0,3.0,57,0.00,,,0.00,Wunderground v.1.15,2013-02-16 11:50:00,
2013-02-16 05:56:00,27.7,14.4,30.33,NW,315,2.0,3.0,57,0.00,,,0.00,Wunderground v.1.15,2013-02-16 11:56:00,
2013-02-16 06:02:00,27.5,14.6,30.34,NNW,330,2.0,2.0,58,0.00,,,0.00,Wunderground v.1.15,2013-02-16 12:02:00,
2013-02-16 06:08:00,27.6,15.1,30.34,NW,323,2.0,5.0,59,0.00,,,0.00,Wunderground v.1.15,2013-02-16 12:08:00,
2013-02-16 06:14:00,27.7,14.8,30.34,NW,322,3.0,3.0,58,0.00,,,0.00,Wunderground v.1.15,2013-02-16 12:14:00,
2013-02-16 06:20:00,27.6,14.7,30.34,NW,306,2.0,4.0,58,0.00,,,0.00,Wunderground v.1.15,2013-02-16 12:20:00,
2013-02-16 06:26:00,27.5,14.6,30.34,NNW,334,2.0,4.0,58,0.00,,,0.00,Wunderground v.1.15,2013-02-16 12:26:00,
2013-02-16 06:32:00,27.5,15.0,30.34,NNW,333,2.0,5.0,59,0.00,,,0.00,Wunderground v.1.15,2013-02-16 12:32:00,
2013-02-16 06:38:00,27.5,15.0,30.34,NNW,334,3.0,5.0,59,0.00,,,0.00,Wunderground v.1.15,2013-02-16 12:38:00,
2013-02-16 06:44:00,27.3,15.2,30.34,NNW,331,4.0,4.0,60,0.00,,,0.00,Wunderground v.1.15,2013-02-16 12:44:00,
2013-02-16 06:50:00,27.2,15.1,30.34,NNW,344,4.0,4.0,60,0.00,,,0.00,Wunderground v.1.15,2013-02-16 12:50:00,
2013-02-16 06:56:00,27.0,15.3,30.34,NNW,337,3.0,6.0,61,0.00,,,0.00,Wunderground v.1.15,2013-02-16 12:56:00,
2013-02-16 07:02:00,26.7,15.0,30.34,NNW,344,4.0,5.0,61,0.00,,,0.00,Wunderground v.1.15,2013-02-16 13:02:00,
2013-02-16 07:08:00,26.5,15.2,30.34,NNW,338,3.0,5.0,62,0.00,,,0.00,Wunderground v.1.15,2013-02-16 13:08:00,
2013-02-16 07:14:00,26.4,15.1,30.34,NNW,337,3.0,5.0,62,0.00,,,0.00,Wunderground v.1.15,2013-02-16 13:14:00,
2013-02-16 07:20:00,26.2,14.9,30.35,NNW,348,2.0,2.0,62,0.00,,,0.00,Wunderground v.1.15,2013-02-16 13:20:00,
2013-02-16 07:26:00,26.2,14.9,30.35,NNW,348,1.0,3.0,62,0.00,,,0.00,Wunderground v.1.15,2013-02-16 13:26:00,
2013-02-16 07:34:00,26.2,15.3,30.35,NNW,330,2.0,2.0,63,0.00,,,0.00,Wunderground v.1.15,2013-02-16 13:34:00,
2013-02-16 07:44:00,26.3,15.8,30.35,NNW,338,2.0,2.0,64,0.00,,,0.00,Wunderground v.1.15,2013-02-16 13:44:00,
2013-02-16 07:50:00,26.4,15.9,30.35,NW,323,2.0,4.0,64,0.00,,,0.00,Wunderground v.1.15,2013-02-16 13:50:00,
2013-02-16 07:56:00,26.6,16.1,30.36,NW,323,2.0,4.0,64,0.00,,,0.00,Wunderground v.1.15,2013-02-16 13:56:00,
2013-02-16 08:02:00,26.9,16.3,30.36,NNW,328,3.0,3.0,64,0.00,,,0.00,Wunderground v.1.15,2013-02-16 14:02:00,
2013-02-16 08:08:00,27.0,16.1,30.37,NNW,344,3.0,6.0,63,0.00,,,0.00,Wunderground v.1.15,2013-02-16 14:08:00,
2013-02-16 08:14:00,27.2,16.3,30.37,WNW,294,3.0,4.0,63,0.00,,,0.00,Wunderground v.1.15,2013-02-16 14:14:00,
2013-02-16 08:20:00,27.5,16.5,30.37,NW,315,3.0,3.0,63,0.00,,,0.00,Wunderground v.1.15,2013-02-16 14:20:00,
2013-02-16 08:26:00,27.7,16.4,30.37,NNW,345,2.0,4.0,62,0.00,,,0.00,Wunderground v.1.15,2013-02-16 14:26:00,
2013-02-16 08:32:00,28.0,16.3,30.37,NNW,342,3.0,5.0,61,0.00,,,0.00,Wunderground v.1.15,2013-02-16 14:32:00,
2013-02-16 08:38:00,28.2,16.5,30.37,NW,314,4.0,5.0,61,0.00,,,0.00,Wunderground v.1.15,2013-02-16 14:38:00,
2013-02-16 08:44:00,28.3,16.6,30.37,NNW,336,4.0,5.0,61,0.00,,,0.00,Wunderground v.1.15,2013-02-16 14:44:00,
2013-02-16 08:50:00,28.7,16.9,30.37,NW,321,3.0,3.0,61,0.00,,,0.00,Wunderground v.1.15,2013-02-16 14:50:00,
2013-02-16 08:56:00,29.0,16.4,30.36,NNW,346,3.0,4.0,59,0.00,,,0.00,Wunderground v.1.15,2013-02-16 14:56:00,
2013-02-16 09:02:00,29.6,16.6,30.37,NNE,12,3.0,6.0,58,0.00,,,0.00,Wunderground v.1.15,2013-02-16 15:02:00,
2013-02-16 09:08:00,30.3,16.5,30.37,NNW,334,3.0,6.0,56,0.00,,,0.00,Wunderground v.1.15,2013-02-16 15:08:00,
2013-02-16 09:14:00,30.7,16.4,30.37,NNW,344,3.0,6.0,55,0.00,,,0.00,Wunderground v.1.15,2013-02-16 15:14:00,
2013-02-16 09:20:00,31.2,16.0,30.37,NNW,332,3.0,3.0,53,0.00,,,0.00,Wunderground v.1.15,2013-02-16 15:20:00,
2013-02-16 09:26:00,31.5,15.4,30.37,North,351,3.0,5.0,51,0.00,,,0.00,Wunderground v.1.15,2013-02-16 15:26:00,
2013-02-16 09:32:00,31.5,14.5,30.37,NW,309,4.0,11.0,49,0.00,,,0.00,Wunderground v.1.15,2013-02-16 15:32:00,
2013-02-16 09:38:00,31.6,14.1,30.37,North,11,5.0,11.0,48,0.00,,,0.00,Wunderground v.1.15,2013-02-16 15:38:00,
2013-02-16 09:44:00,31.8,14.3,30.37,NNE,17,5.0,6.0,48,0.00,,,0.00,Wunderground v.1.15,2013-02-16 15:44:00,
2013-02-16 09:50:00,32.2,14.7,30.37,NNW,340,4.0,4.0,48,0.00,,,0.00,Wunderground v.1.15,2013-02-16 15:50:00,
2013-02-16 09:56:00,32.5,14.0,30.37,NE,52,4.0,4.0,46,0.00,,,0.00,Wunderground v.1.15,2013-02-16 15:56:00,
2013-02-16 10:02:00,32.8,13.8,30.37,NNW,337,4.0,9.0,45,0.00,,,0.00,Wunderground v.1.15,2013-02-16 16:02:00,
2013-02-16 10:08:00,32.8,13.8,30.37,NNE,31,4.0,9.0,45,0.00,,,0.00,Wunderground v.1.15,2013-02-16 16:08:00,
2013-02-16 10:14:00,33.2,13.6,30.37,NNW,339,4.0,5.0,44,0.00,,,0.00,Wunderground v.1.15,2013-02-16 16:14:00,
2013-02-16 10:20:00,33.6,13.5,30.36,North,11,3.0,5.0,43,0.00,,,0.00,Wunderground v.1.15,2013-02-16 16:20:00,
2013-02-16 10:26:00,33.5,12.8,30.36,NNW,333,4.0,5.0,42,0.00,,,0.00,Wunderground v.1.15,2013-02-16 16:26:00,
2013-02-16 10:32:00,33.6,12.9,30.36,NNW,331,3.0,4.0,42,0.00,,,0.00,Wunderground v.1.15,2013-02-16 16:32:00,
2013-02-16 10:38:00,34.0,13.8,30.36,NNW,327,2.0,4.0,43,0.00,,,0.00,Wunderground v.1.15,2013-02-16 16:38:00,
2013-02-16 10:44:00,34.7,13.9,30.35,NW,315,2.0,3.0,42,0.00,,,0.00,Wunderground v.1.15,2013-02-16 16:44:00,
2013-02-16 10:50:00,35.5,13.5,30.35,North,360,2.0,2.0,40,0.00,,,0.00,Wunderground v.1.15,2013-02-16 16:50:00,
2013-02-16 10:56:00,36.0,13.4,30.35,North,11,2.0,2.0,39,0.00,,,0.00,Wunderground v.1.15,2013-02-16 16:56:00,
2013-02-16 11:02:00,36.7,13.4,30.35,WNW,295,1.0,4.0,38,0.00,,,0.00,Wunderground v.1.15,2013-02-16 17:02:00,
2013-02-16 11:08:00,36.7,12.8,30.35,NW,304,2.0,4.0,37,0.00,,,0.00,Wunderground v.1.15,2013-02-16 17:08:00,
2013-02-16 11:14:00,36.4,12.6,30.34,WNW,300,2.0,3.0,37,0.00,,,0.00,Wunderground v.1.15,2013-02-16 17:14:00,
2013-02-16 11:20:00,36.7,13.4,30.34,WNW,302,2.0,2.0,38,0.00,,,0.00,Wunderground v.1.15,2013-02-16 17:20:00,
2013-02-16 11:26:00,37.3,12.7,30.34,NNW,341,2.0,3.0,36,0.00,,,0.00,Wunderground v.1.15,2013-02-16 17:26:00,
2013-02-16 11:32:00,37.4,13.5,30.34,NNE,23,2.0,6.0,37,0.00,,,0.00,Wunderground v.1.15,2013-02-16 17:32:00,
2013-02-16 11:38:00,37.9,13.9,30.34,NNW,337,2.0,6.0,37,0.00,,,0.00,Wunderground v.1.15,2013-02-16 17:38:00,
2013-02-16 11:44:00,38.6,13.3,30.33,NNW,336,1.0,2.0,35,0.00,,,0.00,Wunderground v.1.15,2013-02-16 17:44:00,
2013-02-16 11:50:00,39.2,13.1,30.32,SSW,204,1.0,1.0,34,0.00,,,0.00,Wunderground v.1.15,2013-02-16 17:50:00,
2013-02-16 11:56:00,39.3,13.2,30.32,South,178,1.0,3.0,34,0.00,,,0.00,Wunderground v.1.15,2013-02-16 17:56:00,
2013-02-16 12:02:00,38.9,12.9,30.31,South,175,1.0,3.0,34,0.00,,,0.00,Wunderground v.1.15,2013-02-16 18:02:00,
2013-02-16 12:08:00,38.3,13.0,30.31,South,175,1.0,3.0,35,0.00,,,0.00,Wunderground v.1.15,2013-02-16 18:08:00,
2013-02-16 12:14:00,38.9,12.9,30.30,South,175,1.0,1.0,34,0.00,,,0.00,Wunderground v.1.15,2013-02-16 18:14:00,
2013-02-16 12:20:00,38.9,12.9,30.29,South,179,1.0,1.0,34,0.00,,,0.00,Wunderground v.1.15,2013-02-16 18:20:00,
2013-02-16 12:26:00,38.5,12.5,30.29,SSE,163,2.0,2.0,34,0.00,,,0.00,Wunderground v.1.15,2013-02-16 18:26:00,
2013-02-16 12:32:00,38.6,12.6,30.29,South,170,1.0,1.0,34,0.00,,,0.00,Wunderground v.1.15,2013-02-16 18:32:00,
2013-02-16 12:38:00,38.8,12.8,30.28,South,178,1.0,1.0,34,0.00,,,0.00,Wunderground v.1.15,2013-02-16 18:38:00,
2013-02-16 12:44:00,39.1,12.4,30.28,South,179,1.0,1.0,33,0.00,,,0.00,Wunderground v.1.15,2013-02-16 18:44:00,
2013-02-16 12:50:00,38.7,12.7,30.27,WSW,242,1.0,1.0,34,0.00,,,0.00,Wunderground v.1.15,2013-02-16 18:50:00,
2013-02-16 12:56:00,38.8,12.8,30.27,SW,229,2.0,3.0,34,0.00,,,0.00,Wunderground v.1.15,2013-02-16 18:56:00,
2013-02-16 13:02:00,39.8,13.0,30.27,SW,225,1.0,3.0,33,0.00,,,0.00,Wunderground v.1.15,2013-02-16 19:02:00,
2013-02-16 13:08:00,40.2,13.3,30.26,SSW,204,1.0,3.0,33,0.00,,,0.00,Wunderground v.1.15,2013-02-16 19:08:00,
2013-02-16 13:14:00,39.8,13.0,30.26,SSE,168,2.0,4.0,33,0.00,,,0.00,Wunderground v.1.15,2013-02-16 19:14:00,
2013-02-16 13:20:00,39.6,13.5,30.24,SSE,151,2.0,3.0,34,0.00,,,0.00,Wunderground v.1.15,2013-02-16 19:20:00,
2013-02-16 13:26:00,39.5,13.4,30.24,SSE,167,2.0,5.0,34,0.00,,,0.00,Wunderground v.1.15,2013-02-16 19:26:00,
2013-02-16 13:32:00,39.4,13.3,30.24,South,183,3.0,4.0,34,0.00,,,0.00,Wunderground v.1.15,2013-02-16 19:32:00,
2013-02-16 13:38:00,39.7,14.2,30.24,SSW,192,2.0,9.0,35,0.00,,,0.00,Wunderground v.1.15,2013-02-16 19:38:00,
2013-02-16 13:50:00,40.1,13.3,30.23,South,177,2.0,2.0,33,0.00,,,0.00,Wunderground v.1.15,2013-02-16 19:50:00,
2013-02-16 13:56:00,40.9,14.0,30.23,South,190,1.0,2.0,33,0.00,,,0.00,Wunderground v.1.15,2013-02-16 19:56:00,
2013-02-16 14:02:00,40.9,14.6,30.23,SSE,168,2.0,4.0,34,0.00,,,0.00,Wunderground v.1.15,2013-02-16 20:02:00,
2013-02-16 14:08:00,40.4,14.2,30.23,South,176,3.0,4.0,34,0.00,,,0.00,Wunderground v.1.15,2013-02-16 20:08:00,
2013-02-16 14:14:00,40.9,14.0,30.22,South,171,2.0,3.0,33,0.00,,,0.00,Wunderground v.1.15,2013-02-16 20:14:00,
2013-02-16 14:20:00,40.9,13.3,30.21,South,182,3.0,3.0,32,0.00,,,0.00,Wunderground v.1.15,2013-02-16 20:20:00,
2013-02-16 14:26:00,41.1,13.4,30.20,South,190,3.0,3.0,32,0.00,,,0.00,Wunderground v.1.15,2013-02-16 20:26:00,
2013-02-16 14:32:00,41.3,13.6,30.20,South,184,2.0,2.0,32,0.00,,,0.00,Wunderground v.1.15,2013-02-16 20:32:00,
2013-02-16 14:38:00,41.2,13.5,30.20,South,183,2.0,3.0,32,0.00,,,0.00,Wunderground v.1.15,2013-02-16 20:38:00,
2013-02-16 14:44:00,41.4,13.7,30.19,South,182,2.0,2.0,32,0.00,,,0.00,Wunderground v.1.15,2013-02-16 20:44:00,
2013-02-16 14:50:00,41.6,13.9,30.18,South,187,2.0,7.0,32,0.00,,,0.00,Wunderground v.1.15,2013-02-16 20:50:00,
2013-02-16 14:56:00,41.6,14.6,30.18,South,175,3.0,7.0,33,0.00,,,0.00,Wunderground v.1.15,2013-02-16 20:56:00,
2013-02-16 15:02:00,41.5,14.5,30.18,South,172,4.0,4.0,33,0.00,,,0.00,Wunderground v.1.15,2013-02-16 21:02:00,
2013-02-16 15:08:00,41.7,14.7,30.17,SSE,161,4.0,6.0,33,0.00,,,0.00,Wunderground v.1.15,2013-02-16 21:08:00,
2013-02-16 15:14:00,41.9,14.1,30.17,SSE,155,4.0,4.0,32,0.00,,,0.00,Wunderground v.1.15,2013-02-16 21:14:00,
2013-02-16 15:20:00,41.9,14.8,30.17,South,179,4.0,4.0,33,0.00,,,0.00,Wunderground v.1.15,2013-02-16 21:20:00,
2013-02-16 15:26:00,42.5,15.4,30.17,SSE,167,3.0,4.0,33,0.00,,,0.00,Wunderground v.1.15,2013-02-16 21:26:00,
2013-02-16 15:32:00,42.5,15.4,30.17,SSE,164,4.0,11.0,33,0.00,,,0.00,Wunderground v.1.15,2013-02-16 21:32:00,
2013-02-16 15:38:00,43.0,15.8,30.16,South,169,4.0,11.0,33,0.00,,,0.00,Wunderground v.1.15,2013-02-16 21:38:00,
2013-02-16 15:44:00,43.3,16.1,30.15,South,177,4.0,10.0,33,0.00,,,0.00,Wunderground v.1.15,2013-02-16 21:44:00,
2013-02-16 15:50:00,44.1,16.1,30.15,South,180,3.0,8.0,32,0.00,,,0.00,Wunderground v.1.15,2013-02-16 21:50:00,
2013-02-16 15:56:00,44.1,16.1,30.16,South,175,4.0,9.0,32,0.00,,,0.00,Wunderground v.1.15,2013-02-16 21:56:00,
2013-02-16 16:02:00,44.3,16.3,30.16,SW,222,4.0,4.0,32,0.00,,,0.00,Wunderground v.1.15,2013-02-16 22:02:00,
2013-02-16 16:08:00,44.6,16.5,30.15,South,187,4.0,4.0,32,0.00,,,0.00,Wunderground v.1.15,2013-02-16 22:08:00,
2013-02-16 16:14:00,45.1,17.0,30.15,South,188,4.0,5.0,32,0.00,,,0.00,Wunderground v.1.15,2013-02-16 22:14:00,
2013-02-16 16:29:00,45.1,17.0,30.15,South,191,5.0,5.0,32,0.00,,,0.00,Wunderground v.1.15,2013-02-16 22:29:00,
2013-02-16 16:34:00,45.2,17.0,30.15,South,183,4.0,6.0,32,0.00,,,0.00,Wunderground v.1.15,2013-02-16 22:34:00,
2013-02-16 16:44:00,45.4,17.9,30.15,South,176,4.0,7.0,33,0.00,,,0.00,Wunderground v.1.15,2013-02-16 22:44:00,
2013-02-16 16:50:00,45.5,18.0,30.14,South,188,4.0,7.0,33,0.00,,,0.00,Wunderground v.1.15,2013-02-16 22:50:00,
2013-02-16 16:56:00,45.4,17.2,30.13,South,180,4.0,4.0,32,0.00,,,0.00,Wunderground v.1.15,2013-02-16 22:56:00,
2013-02-16 17:02:00,45.0,17.6,30.13,South,190,5.0,6.0,33,0.00,,,0.00,Wunderground v.1.15,2013-02-16 23:02:00,
2013-02-16 17:08:00,44.8,18.1,30.13,South,186,4.0,6.0,34,0.00,,,0.00,Wunderground v.1.15,2013-02-16 23:08:00,
2013-02-16 17:14:00,44.8,18.1,30.13,South,183,3.0,5.0,34,0.00,,,0.00,Wunderground v.1.15,2013-02-16 23:14:00,
2013-02-16 17:20:00,44.7,18.0,30.13,SSW,205,3.0,5.0,34,0.00,,,0.00,Wunderground v.1.15,2013-02-16 23:20:00,
2013-02-16 17:26:00,44.7,18.7,30.13,South,182,3.0,6.0,35,0.00,,,0.00,Wunderground v.1.15,2013-02-16 23:26:00,
2013-02-16 17:32:00,44.6,17.9,30.13,SSW,192,3.0,4.0,34,0.00,,,0.00,Wunderground v.1.15,2013-02-16 23:32:00,
2013-02-16 17:38:00,44.6,17.9,30.13,South,191,3.0,5.0,34,0.00,,,0.00,Wunderground v.1.15,2013-02-16 23:38:00,
2013-02-16 17:44:00,44.6,18.6,30.13,South,182,3.0,3.0,35,0.00,,,0.00,Wunderground v.1.15,2013-02-16 23:44:00,
2013-02-16 17:50:00,44.5,18.5,30.13,South,183,2.0,2.0,35,0.00,,,0.00,Wunderground v.1.15,2013-02-16 23:50:00,
2013-02-16 17:56:00,44.3,18.3,30.12,South,186,2.0,4.0,35,0.00,,,0.00,Wunderground v.1.15,2013-02-16 23:56:00,
2013-02-16 18:02:00,44.3,19.0,30.12,South,175,3.0,5.0,36,0.00,,,0.00,Wunderground v.1.15,2013-02-17 00:02:00,
2013-02-16 18:08:00,44.2,18.9,30.12,SSE,154,2.0,5.0,36,0.00,,,0.00,Wunderground v.1.15,2013-02-17 00:08:00,
2013-02-16 18:14:00,44.2,18.9,30.11,SSE,159,2.0,2.0,36,0.00,,,0.00,Wunderground v.1.15,2013-02-17 00:14:00,
2013-02-16 18:20:00,44.1,18.8,30.11,South,173,2.0,2.0,36,0.00,,,0.00,Wunderground v.1.15,2013-02-17 00:20:00,
2013-02-16 18:26:00,44.1,18.8,30.11,SSE,149,2.0,3.0,36,0.00,,,0.00,Wunderground v.1.15,2013-02-17 00:26:00,
2013-02-16 18:32:00,44.0,19.4,30.11,South,182,2.0,2.0,37,0.00,,,0.00,Wunderground v.1.15,2013-02-17 00:32:00,
2013-02-16 18:38:00,43.9,19.3,30.11,South,189,3.0,5.0,37,0.00,,,0.00,Wunderground v.1.15,2013-02-17 00:38:00,
2013-02-16 18:44:00,43.8,19.2,30.11,South,182,3.0,5.0,37,0.00,,,0.00,Wunderground v.1.15,2013-02-17 00:44:00,
2013-02-16 18:50:00,43.6,19.0,30.11,South,173,3.0,5.0,37,0.00,,,0.00,Wunderground v.1.15,2013-02-17 00:50:00,
2013-02-16 18:56:00,43.5,18.9,30.10,SSE,166,3.0,5.0,37,0.00,,,0.00,Wunderground v.1.15,2013-02-17 00:56:00,
2013-02-16 19:02:00,43.4,18.8,30.10,SSW,195,3.0,6.0,37,0.00,,,0.00,Wunderground v.1.15,2013-02-17 01:02:00,
2013-02-16 19:08:00,43.3,19.4,30.10,South,180,3.0,6.0,38,0.00,,,0.00,Wunderground v.1.15,2013-02-17 01:08:00,
2013-02-16 19:14:00,43.2,19.3,30.10,SSE,168,3.0,6.0,38,0.00,,,0.00,Wunderground v.1.15,2013-02-17 01:14:00,
2013-02-16 19:20:00,43.1,19.2,30.10,South,175,3.0,3.0,38,0.00,,,0.00,Wunderground v.1.15,2013-02-17 01:20:00,
2013-02-16 19:26:00,42.9,19.0,30.10,South,177,2.0,3.0,38,0.00,,,0.00,Wunderground v.1.15,2013-02-17 01:26:00,
2013-02-16 19:32:00,42.8,18.9,30.10,South,179,3.0,3.0,38,0.00,,,0.00,Wunderground v.1.15,2013-02-17 01:32:00,
2013-02-16 19:38:00,42.6,19.3,30.10,SSE,155,3.0,7.0,39,0.00,,,0.00,Wunderground v.1.15,2013-02-17 01:38:00,
2013-02-16 19:44:00,42.5,19.3,30.10,South,171,3.0,4.0,39,0.00,,,0.00,Wunderground v.1.15,2013-02-17 01:44:00,
2013-02-16 19:50:00,42.3,19.1,30.09,SSE,168,2.0,2.0,39,0.00,,,0.00,Wunderground v.1.15,2013-02-17 01:50:00,
2013-02-16 19:56:00,42.0,18.8,30.09,South,184,2.0,3.0,39,0.00,,,0.00,Wunderground v.1.15,2013-02-17 01:56:00,
2013-02-16 20:02:00,41.9,18.7,30.09,SSE,161,3.0,6.0,39,0.00,,,0.00,Wunderground v.1.15,2013-02-17 02:02:00,
2013-02-16 20:08:00,41.4,18.9,30.09,South,177,3.0,6.0,40,0.00,,,0.00,Wunderground v.1.15,2013-02-17 02:08:00,
2013-02-16 20:14:00,41.3,18.8,30.09,SSE,158,4.0,5.0,40,0.00,,,0.00,Wunderground v.1.15,2013-02-17 02:14:00,
2013-02-16 20:20:00,41.1,19.2,30.09,SSE,156,4.0,4.0,41,0.00,,,0.00,Wunderground v.1.15,2013-02-17 02:20:00,
2013-02-16 20:26:00,40.9,19.0,30.09,SSE,164,4.0,4.0,41,0.00,,,0.00,Wunderground v.1.15,2013-02-17 02:26:00,
2013-02-16 20:32:00,40.7,18.8,30.08,SSE,161,5.0,5.0,41,0.00,,,0.00,Wunderground v.1.15,2013-02-17 02:32:00,
2013-02-16 20:38:00,40.5,18.6,30.08,South,181,4.0,6.0,41,0.00,,,0.00,Wunderground v.1.15,2013-02-17 02:38:00,
2013-02-16 20:44:00,40.4,18.5,30.08,SSW,192,4.0,4.0,41,0.00,,,0.00,Wunderground v.1.15,2013-02-17 02:44:00,
2013-02-16 20:50:00,40.4,18.0,30.09,South,182,4.0,4.0,40,0.00,,,0.00,Wunderground v.1.15,2013-02-17 02:50:00,
2013-02-16 20:56:00,40.5,18.0,30.08,South,182,3.0,5.0,40,0.00,,,0.00,Wunderground v.1.15,2013-02-17 02:56:00,
2013-02-16 21:02:00,40.4,18.5,30.08,South,175,3.0,3.0,41,0.00,,,0.00,Wunderground v.1.15,2013-02-17 03:02:00,
2013-02-16 21:08:00,40.3,18.4,30.08,SSE,153,3.0,5.0,41,0.00,,,0.00,Wunderground v.1.15,2013-02-17 03:08:00,
2013-02-16 21:14:00,40.2,18.3,30.08,South,191,3.0,4.0,41,0.00,,,0.00,Wunderground v.1.15,2013-02-17 03:14:00,
2013-02-16 21:20:00,40.1,18.3,30.08,South,178,3.0,5.0,41,0.00,,,0.00,Wunderground v.1.15,2013-02-17 03:20:00,
2013-02-16 21:26:00,40.0,18.2,30.08,South,182,3.0,5.0,41,0.00,,,0.00,Wunderground v.1.15,2013-02-17 03:26:00,
2013-02-16 21:32:00,39.8,18.5,30.08,South,181,2.0,7.0,42,0.00,,,0.00,Wunderground v.1.15,2013-02-17 03:32:00,
2013-02-16 21:38:00,39.7,18.5,30.08,South,187,3.0,7.0,42,0.00,,,0.00,Wunderground v.1.15,2013-02-17 03:38:00,
2013-02-16 21:44:00,39.7,18.5,30.08,SSW,192,3.0,3.0,42,0.00,,,0.00,Wunderground v.1.15,2013-02-17 03:44:00,
2013-02-16 21:50:00,39.6,18.9,30.08,South,191,3.0,3.0,43,0.00,,,0.00,Wunderground v.1.15,2013-02-17 03:50:00,
2013-02-16 21:56:00,39.5,18.8,30.08,South,190,2.0,5.0,43,0.00,,,0.00,Wunderground v.1.15,2013-02-17 03:56:00,
2013-02-16 22:02:00,39.3,19.2,30.08,South,187,2.0,3.0,44,0.00,,,0.00,Wunderground v.1.15,2013-02-17 04:02:00,
2013-02-16 22:08:00,39.3,19.2,30.08,SSW,194,2.0,3.0,44,0.00,,,0.00,Wunderground v.1.15,2013-02-17 04:08:00,
2013-02-16 22:14:00,39.2,19.6,30.08,SSW,194,3.0,4.0,45,0.00,,,0.00,Wunderground v.1.15,2013-02-17 04:14:00,
2013-02-16 22:20:00,39.2,19.6,30.08,South,188,3.0,4.0,45,0.00,,,0.00,Wunderground v.1.15,2013-02-17 04:20:00,
2013-02-16 22:26:00,39.1,19.5,30.07,South,188,4.0,7.0,45,0.00,,,0.00,Wunderground v.1.15,2013-02-17 04:26:00,
2013-02-16 22:32:00,39.0,19.9,30.07,South,186,4.0,5.0,46,0.00,,,0.00,Wunderground v.1.15,2013-02-17 04:32:00,
2013-02-16 22:38:00,39.0,19.9,30.07,South,189,4.0,7.0,46,0.00,,,0.00,Wunderground v.1.15,2013-02-17 04:38:00,
2013-02-16 22:44:00,38.9,20.4,30.06,South,188,4.0,6.0,47,0.00,,,0.00,Wunderground v.1.15,2013-02-17 04:44:00,
2013-02-16 22:50:00,38.9,20.4,30.06,SSW,195,4.0,9.0,47,0.00,,,0.00,Wunderground v.1.15,2013-02-17 04:50:00,
2013-02-16 22:56:00,38.9,20.4,30.06,SE,141,3.0,9.0,47,0.00,,,0.00,Wunderground v.1.15,2013-02-17 04:56:00,
2013-02-16 23:00:00,38.9,20.4,30.06,South,184,3.0,5.0,47,0.00,,,0.00,Wunderground v.1.15,2013-02-17 05:00:00,
2013-02-16 23:02:00,38.9,20.4,30.06,SSW,194,4.0,9.0,47,0.00,,,0.00,Wunderground v.1.15,2013-02-17 05:02:00,
2013-02-16 23:08:00,38.9,20.9,30.05,SSE,161,3.0,9.0,48,0.00,,,0.00,Wunderground v.1.15,2013-02-17 05:08:00,
2013-02-16 23:12:00,38.8,20.8,30.05,South,189,3.0,3.0,48,0.00,,,0.00,Wunderground v.1.15,2013-02-17 05:12:00,
2013-02-16 23:14:00,38.8,20.8,30.05,South,184,3.0,3.0,48,0.00,,,0.00,Wunderground v.1.15,2013-02-17 05:14:00,
2013-02-16 23:20:00,38.7,20.7,30.05,South,183,2.0,3.0,48,0.00,,,0.00,Wunderground v.1.15,2013-02-17 05:20:00,
2013-02-16 23:26:00,38.8,20.8,30.05,South,185,3.0,4.0,48,0.00,,,0.00,Wunderground v.1.15,2013-02-17 05:26:00,
2013-02-16 23:32:00,38.8,21.3,30.05,South,187,3.0,4.0,49,0.00,,,0.00,Wunderground v.1.15,2013-02-17 05:32:00,
2013-02-16 23:38:00,38.9,21.3,30.05,South,182,3.0,4.0,49,0.00,,,0.00,Wunderground v.1.15,2013-02-17 05:38:00,
2013-02-16 23:44:00,38.9,21.3,30.05,South,182,3.0,3.0,49,0.00,,,0.00,Wunderground v.1.15,2013-02-17 05:44:00,
2013-02-16 23:50:00,38.8,21.3,30.05,SSW,192,2.0,4.0,49,0.00,,,0.00,Wunderground v.1.15,2013-02-17 05:50:00,
2013-02-16 23:56:00,38.8,21.7,30.04,SSW,192,3.0,4.0,50,0.00,,,0.00,Wunderground v.1.15,2013-02-17 05:56:00,